Atmospheric History
12/06/2017 18:31  to  12/7/2017 18:31
Change End Date:
To complete the export process:
1) Select all of the data below
2) Copy the data to the clipboard
3) Open a word processor such as Notepad
4) Paste the data into the word processor
5) Save the file

Date/Time (MST), AirTemp, RH, Dewpoint ,AvgWindSpeed, GustWindSpeed, WindDirection, PrecipType, PrecipIntensity, PrecipAccumulation, PrecipRate
12/07/2017 18:25, 32, 68, 23 ,14, 19, W, None, None, ,  
12/07/2017 18:22, 33, 68, 23 ,14, 19, W, None, None, ,  
12/07/2017 18:15, 33, 68, 23 ,14, 18, W, None, None, ,  
12/07/2017 18:07, 33, 68, 23 ,12, 17, W, None, None, ,  
12/07/2017 18:05, 33, 68, 24 ,14, 17, SW, None, None, ,  
12/07/2017 17:55, 33, 67, 24 ,14, 19, SW, None, None, ,  
12/07/2017 17:52, 33, 69, 24 ,13, 19, SW, None, None, ,  
12/07/2017 17:45, 33, 69, 24 ,12, 17, SW, None, None, ,  
12/07/2017 17:37, 32, 71, 24 ,11, 15, SW, None, None, ,  
12/07/2017 17:35, 32, 71, 24 ,9, 14, SW, None, None, ,  
12/07/2017 17:25, 32, 72, 24 ,7, 15, SW, None, None, ,  
12/07/2017 17:22, 32, 71, 24 ,8, 15, SW, None, None, ,  
12/07/2017 17:15, 33, 71, 24 ,9, 13, W, None, None, ,  
12/07/2017 17:07, 33, 70, 24 ,8, 12, W, None, None, ,  
12/07/2017 17:05, 32, 70, 24 ,6, 12, W, None, None, ,  
12/07/2017 16:55, 33, 70, 24 ,7, 13, W, None, None, ,  
12/07/2017 16:52, 32, 70, 24 ,6, 13, SW, None, None, ,  
12/07/2017 16:45, 34, 67, 24 ,9, 13, W, None, None, ,  
12/07/2017 16:37, 34, 66, 24 ,10, 17, W, None, None, ,  
12/07/2017 16:35, 34, 67, 24 ,12, 17, W, None, None, ,  
12/07/2017 16:25, 33, 69, 24 ,9, 12, W, None, None, ,  
12/07/2017 16:22, 33, 69, 24 ,9, 12, W, None, None, ,  
12/07/2017 16:14, 34, 69, 24 ,7, 9, W, None, None, ,  
12/07/2017 16:08, 34, 68, 24 ,7, 9, W, None, None, ,  
12/07/2017 16:04, 34, 68, 25 ,7, 9, W, None, None, ,  
12/07/2017 15:54, 34, 68, 25 ,6, 7, W, None, None, ,  
12/07/2017 15:52, 34, 68, 25 ,4, 7, W, None, None, ,  
12/07/2017 15:44, 34, 69, 25 ,6, 13, W, None, None, ,  
12/07/2017 15:37, 34, 69, 25 ,6, 15, W, None, None, ,  
12/07/2017 15:34, 35, 68, 25 ,10, 15, W, None, None, ,  
12/07/2017 15:24, 35, 68, 25 ,9, 15, W, None, None, ,  
12/07/2017 15:22, 35, 68, 25 ,10, 16, W, None, None, ,  
12/07/2017 15:14, 35, 69, 25 ,10, 17, W, None, None, ,  
12/07/2017 15:07, 35, 69, 26 ,12, 17, W, None, None, ,  
12/07/2017 15:04, 34, 70, 26 ,11, 18, W, None, None, ,  
12/07/2017 14:54, 35, 70, 26 ,11, 17, W, None, None, ,  
12/07/2017 14:52, 34, 70, 26 ,14, 17, W, None, None, ,  
12/07/2017 14:44, 34, 70, 26 ,14, 18, W, None, None, ,  
12/07/2017 14:37, 34, 70, 26 ,14, 21, W, None, None, ,  
12/07/2017 14:34, 35, 69, 26 ,16, 21, W, None, None, ,  
12/07/2017 14:24, 35, 69, 26 ,17, 21, W, None, None, ,  
12/07/2017 14:23, 35, 69, 26 ,17, 21, W, None, None, ,  
12/07/2017 14:14, 35, 69, 26 ,17, 23, W, None, None, ,  
12/07/2017 14:07, 34, 70, 26 ,18, 24, W, None, None, ,  
12/07/2017 14:04, 35, 69, 26 ,17, 24, W, None, None, ,  
12/07/2017 13:54, 34, 69, 25 ,17, 24, W, None, None, ,  
12/07/2017 13:52, 34, 69, 25 ,18, 24, W, None, None, ,  
12/07/2017 13:44, 34, 68, 25 ,19, 25, W, None, None, ,  
12/07/2017 13:37, 34, 67, 24 ,19, 25, W, None, None, ,  
12/07/2017 13:34, 34, 69, 25 ,20, 24, W, None, None, ,  
12/07/2017 13:24, 34, 67, 24 ,17, 22, W, None, None, ,  
12/07/2017 13:22, 34, 68, 24 ,19, 22, W, None, None, ,  
12/07/2017 13:14, 34, 69, 24 ,17, 23, SW, None, None, ,  
12/07/2017 13:07, 33, 68, 24 ,17, 24, W, None, None, ,  
12/07/2017 13:04, 33, 69, 24 ,17, 24, W, None, None, ,  
12/07/2017 12:54, 33, 70, 24 ,17, 23, W, None, None, ,  
12/07/2017 12:52, 33, 69, 24 ,18, 23, W, None, None, ,  
12/07/2017 12:44, 33, 71, 24 ,16, 21, W, None, None, ,  
12/07/2017 12:37, 32, 70, 24 ,17, 22, W, None, None, ,  
12/07/2017 12:34, 32, 70, 24 ,18, 22, W, None, None, ,  
12/07/2017 12:24, 32, 70, 23 ,17, 24, W, None, None, ,  
12/07/2017 12:22, 32, 69, 23 ,17, 24, W, None, None, ,  
12/07/2017 12:13, 32, 70, 23 ,14, 21, W, None, None, ,  
12/07/2017 12:07, 32, 68, 23 ,17, 21, W, None, None, ,  
12/07/2017 12:03, 32, 69, 23 ,17, 21, W, None, None, ,  
12/07/2017 11:53, 32, 68, 23 ,18, 22, W, None, None, ,  
12/07/2017 11:53, 32, 68, 22 ,17, 22, W, None, None, ,  
12/07/2017 11:43, 32, 68, 22 ,14, 18, W, None, None, ,  
12/07/2017 11:37, 32, 67, 22 ,11, 17, W, None, None, ,  
12/07/2017 11:33, 31, 67, 22 ,11, 19, SW, None, None, ,  
12/07/2017 11:23, 32, 67, 22 ,13, 19, W, None, None, ,  
12/07/2017 11:22, 32, 67, 22 ,11, 19, W, None, None, ,  
12/07/2017 11:13, 31, 67, 22 ,14, 21, SW, None, None, ,  
12/07/2017 11:07, 31, 67, 21 ,15, 20, SW, None, None, ,  
12/07/2017 11:03, 30, 66, 20 ,15, 21, W, None, None, ,  
12/07/2017 10:53, 30, 67, 21 ,15, 22, SW, None, None, ,  
12/07/2017 10:52, 30, 67, 20 ,16, 22, SW, None, None, ,  
12/07/2017 10:43, 28, 69, 20 ,16, 21, SW, None, None, ,  
12/07/2017 10:37, 28, 69, 19 ,16, 21, SW, None, None, ,  
12/07/2017 10:33, 28, 69, 19 ,17, 21, SW, None, None, ,  
12/07/2017 10:23, 27, 71, 19 ,11, 17, SW, None, None, ,  
12/07/2017 10:22, 27, 70, 19 ,10, 16, SW, None, None, ,  
12/07/2017 10:13, 25, 74, 18 ,7, 12, SW, None, None, ,  
12/07/2017 10:07, 25, 74, 18 ,7, 14, SW, None, None, ,  
12/07/2017 10:03, 25, 74, 18 ,6, 14, SW, None, None, ,  
12/07/2017 09:53, 25, 74, 18 ,9, 15, SW, None, None, ,  
12/07/2017 09:52, 25, 74, 18 ,9, 15, SW, None, None, ,  
12/07/2017 09:43, 25, 73, 18 ,7, 16, SW, None, None, ,  
12/07/2017 09:37, 25, 71, 17 ,8, 17, SW, None, None, ,  
12/07/2017 09:33, 25, 71, 17 ,7, 17, SW, None, None, ,  
12/07/2017 09:23, 25, 73, 17 ,12, 17, SW, None, None, ,  
12/07/2017 09:22, 25, 73, 17 ,12, 17, SW, None, None, ,  
12/07/2017 09:13, 25, 73, 17 ,9, 14, SW, None, None, ,  
12/07/2017 09:07, 24, 74, 17 ,7, 14, SW, None, None, ,  
12/07/2017 09:03, 24, 76, 18 ,8, 18, SW, None, None, ,  
12/07/2017 08:53, 23, 77, 17 ,13, 19, SW, None, None, ,  
12/07/2017 08:52, 23, 77, 17 ,14, 19, SW, None, None, ,  
12/07/2017 08:43, 22, 82, 18 ,14, 18, SW, None, None, ,  
12/07/2017 08:37, 22, 83, 18 ,14, 19, SW, None, None, ,  
12/07/2017 08:33, 22, 83, 18 ,12, 19, SW, None, None, ,  
12/07/2017 08:23, 22, 85, 18 ,14, 19, S, None, None, ,  
12/07/2017 08:22, 22, 85, 18 ,14, 19, S, None, None, ,  
12/07/2017 08:13, 22, 86, 18 ,14, 21, SW, None, None, ,  
12/07/2017 08:07, 22, 85, 18 ,9, 21, SW, None, None, ,  
12/07/2017 08:02, 21, 88, 19 ,17, 21, S, None, None, ,  
12/07/2017 07:52, 21, 91, 19 ,14, 18, S, None, None, ,  
12/07/2017 07:52, 21, 91, 19 ,14, 18, S, None, None, ,  
12/07/2017 07:42, 21, 92, 19 ,13, 19, S, None, None, ,  
12/07/2017 07:37, 21, 93, 19 ,13, 17, S, None, None, ,  
12/07/2017 07:32, 20, 93, 19 ,14, 18, S, None, None, ,  
12/07/2017 07:22, 20, 94, 19 ,15, 19, S, None, None, ,  
12/07/2017 07:22, 20, 94, 19 ,15, 19, S, None, None, ,  
12/07/2017 07:12, 20, 96, 19 ,15, 19, S, None, None, ,  
12/07/2017 07:08, 20, 97, 19 ,15, 19, S, None, None, ,  
12/07/2017 07:02, 20, 96, 19 ,12, 19, S, None, None, ,  
12/07/2017 06:53, 20, 96, 19 ,14, 18, S, None, None, ,  
12/07/2017 06:52, 20, 97, 19 ,14, 17, S, None, None, ,  
12/07/2017 06:42, 20, 96, 19 ,13, 21, S, None, None, ,  
12/07/2017 06:37, 20, 96, 19 ,14, 21, S, None, None, ,  
12/07/2017 06:32, 20, 99, 19 ,17, 20, S, None, None, ,  
12/07/2017 06:22, 20, 98, 19 ,16, 19, S, None, None, ,  
12/07/2017 06:22, 20, 99, 19 ,16, 19, S, None, None, ,  
12/07/2017 06:12, 19, 100, 19 ,15, 18, S, None, None, ,  
12/07/2017 06:07, 19, 100, 20 ,14, 17, S, None, None, ,  
12/07/2017 06:02, 18, , 19 ,12, 16, S, None, None, ,  
12/07/2017 05:53, 18, 100, 19 ,11, 17, S, None, None, ,  
12/07/2017 05:52, 18, 100, 19 ,11, 17, S, None, None, ,  
12/07/2017 05:42, 19, 100, 19 ,15, 19, S, None, None, ,  
12/07/2017 05:37, 19, , 19 ,16, 19, S, None, None, ,  
12/07/2017 05:32, 18, , 19 ,16, 19, S, None, None, ,  
12/07/2017 05:22, 19, , 19 ,13, 17, S, None, None, ,  
12/07/2017 05:22, 19, , 19 ,14, 17, S, None, None, ,  
12/07/2017 05:12, 18, , 19 ,13, 16, S, None, None, ,  
12/07/2017 05:07, 18, , 19 ,12, 19, S, None, None, ,  
12/07/2017 05:02, 18, , 19 ,14, 19, S, None, None, ,  
12/07/2017 04:52, 17, , 19 ,14, 17, S, None, None, ,  
12/07/2017 04:52, 17, , 19 ,14, 18, S, None, None, ,  
12/07/2017 04:42, 17, , 19 ,15, 20, S, None, None, ,  
12/07/2017 04:37, 17, , 19 ,17, 20, S, None, None, ,  
12/07/2017 04:32, 17, , 19 ,16, 19, S, None, None, ,  
12/07/2017 04:22, 17, , 18 ,16, 19, S, None, None, ,  
12/07/2017 04:22, 17, , 18 ,15, 18, S, None, None, ,  
12/07/2017 04:12, 17, , 19 ,14, 17, S, None, None, ,  
12/07/2017 04:07, 16, , 18 ,13, 17, S, None, None, ,  
12/07/2017 04:01, 15, , 17 ,12, 14, S, None, None, ,  
12/07/2017 03:53, 14, , 16 ,11, 14, S, None, None, ,  
12/07/2017 03:51, 14, , 16 ,11, 14, S, None, None, ,  
12/07/2017 03:41, 14, , 15 ,12, 16, S, None, None, ,  
12/07/2017 03:38, 14, , 16 ,11, 16, S, None, None, ,  
12/07/2017 03:31, 14, , 16 ,13, 15, S, None, None, ,  
12/07/2017 03:23, 14, , 16 ,13, 16, S, None, None, ,  
12/07/2017 03:21, 14, , 16 ,13, 16, S, None, None, ,  
12/07/2017 03:11, 14, , 16 ,12, 17, S, None, None, ,  
12/07/2017 03:08, 14, , 16 ,12, 17, S, None, None, ,  
12/07/2017 03:01, 14, , 17 ,12, 16, S, None, None, ,  
12/07/2017 02:53, 14, , 16 ,13, 16, S, None, None, ,  
12/07/2017 02:51, 14, , 16 ,12, 16, S, None, None, ,  
12/07/2017 02:41, 15, , 17 ,12, 16, S, None, None, ,  
12/07/2017 02:38, 14, , 17 ,13, 16, S, None, None, ,  
12/07/2017 02:31, 14, , 16 ,11, 15, S, None, None, ,  
12/07/2017 02:23, 15, , 17 ,12, 14, S, None, None, ,  
12/07/2017 02:21, 15, , 17 ,13, 14, S, None, None, ,  
12/07/2017 02:11, 15, , 17 ,9, 12, S, None, None, ,  
12/07/2017 02:08, 15, , 17 ,9, 14, S, None, None, ,  
12/07/2017 02:01, 16, , 18 ,12, 14, S, None, None, ,  
12/07/2017 01:54, 15, , 18 ,11, 14, S, None, None, ,  
12/07/2017 01:51, 15, , 18 ,9, 12, S, None, None, ,  
12/07/2017 01:41, 14, , 15 ,9, 12, S, None, None, ,  
12/07/2017 01:37, 14, , 15 ,9, 11, S, None, None, ,  
12/07/2017 01:31, 15, , 16 ,8, 11, S, None, None, ,  
12/07/2017 01:22, 15, , 17 ,9, 12, S, None, None, ,  
12/07/2017 01:21, 15, , 17 ,9, 12, S, None, None, ,  
12/07/2017 01:11, 14, , 15 ,2, 4, SW, None, None, ,  
12/07/2017 01:07, 14, , 15 ,2, 7, SW, None, None, ,  
12/07/2017 01:01, 14, , 15 ,3, 7, SW, None, None, ,  
12/07/2017 00:52, 14, , 15 ,2, 6, SW, None, None, ,  
12/07/2017 00:51, 14, , 15 ,2, 7, SW, None, None, ,  
12/07/2017 00:41, 13, , 15 ,3, 6, SW, None, None, ,  
12/07/2017 00:37, 13, , 14 ,3, 6, SW, None, None, ,  
12/07/2017 00:31, 13, , 13 ,2, 2, SW, None, None, ,  
12/07/2017 00:22, 13, 100, 13 ,0, 2, SW, None, None, ,  
12/07/2017 00:21, 13, 100, 13 ,0, 2, SW, None, None, ,  
12/07/2017 00:11, 14, 97, 13 ,4, 9, SW, None, None, ,  
12/07/2017 00:08, 14, 97, 14 ,6, 11, S, None, None, ,  
12/07/2017 00:01, 15, 100, 15 ,7, 11, S, None, None, ,  
12/06/2017 23:52, 15, 96, 14 ,4, 7, SW, None, None, ,  
12/06/2017 23:50, 15, 96, 14 ,6, 8, SW, None, None, ,  
12/06/2017 23:40, 15, 90, 13 ,3, 11, SW, None, None, ,  
12/06/2017 23:37, 15, 91, 13 ,7, 11, SW, None, None, ,  
12/06/2017 23:30, 16, 89, 13 ,7, 12, SW, None, None, ,  
12/06/2017 23:22, 17, 89, 14 ,9, 11, S, None, None, ,  
12/06/2017 23:20, 17, 88, 14 ,8, 11, S, None, None, ,  
12/06/2017 23:10, 17, 88, 14 ,3, 7, SW, None, None, ,  
12/06/2017 23:07, 17, 88, 14 ,3, 9, SW, None, None, ,  
12/06/2017 23:00, 16, 87, 13 ,2, 13, SW, None, None, ,  
12/06/2017 22:52, 16, 87, 13 ,7, 13, SW, None, None, ,  
12/06/2017 22:50, 16, 86, 13 ,5, 13, SW, None, None, ,  
12/06/2017 22:40, 16, 85, 13 ,9, 13, SW, None, None, ,  
12/06/2017 22:37, 16, 85, 13 ,7, 13, SW, None, None, ,  
12/06/2017 22:30, 16, 85, 12 ,9, 12, SW, None, None, ,  
12/06/2017 22:22, 16, 86, 12 ,7, 10, S, None, None, ,  
12/06/2017 22:20, 16, 86, 12 ,4, 12, SW, None, None, ,  
12/06/2017 22:10, 15, 86, 12 ,7, 12, SW, None, None, ,  
12/06/2017 22:07, 15, 86, 12 ,7, 11, S, None, None, ,  
12/06/2017 22:00, 15, 86, 12 ,7, 10, S, None, None, ,  
12/06/2017 21:52, 15, 86, 11 ,7, 11, S, None, None, ,  
12/06/2017 21:50, 15, 85, 11 ,8, 11, S, None, None, ,  
12/06/2017 21:40, 15, 85, 11 ,5, 8, S, None, None, ,  
12/06/2017 21:37, 15, 85, 11 ,4, 8, SW, None, None, ,  
12/06/2017 21:30, 15, 85, 11 ,2, 9, SW, None, None, ,  
12/06/2017 21:22, 15, 85, 11 ,6, 9, S, None, None, ,  
12/06/2017 21:20, 15, 85, 11 ,4, 7, SW, None, None, ,  
12/06/2017 21:10, 15, 85, 11 ,3, 7, SW, None, None, ,  
12/06/2017 21:07, 15, 85, 11 ,3, 7, SW, None, None, ,  
12/06/2017 21:00, 15, 85, 11 ,3, 6, SW, None, None, ,  
12/06/2017 20:52, 15, 85, 11 ,3, 9, SW, None, None, ,  
12/06/2017 20:50, 15, 84, 11 ,6, 9, SW, None, None, ,  
12/06/2017 20:40, 15, 83, 11 ,3, 7, SW, None, None, ,  
12/06/2017 20:37, 15, 83, 11 ,4, 7, SW, None, None, ,  
12/06/2017 20:30, 15, 83, 11 ,5, 8, SW, None, None, ,  
12/06/2017 20:23, 15, 83, 11 ,5, 7, SW, None, None, ,  
12/06/2017 20:20, 15, 83, 11 ,2, 6, SW, Yes, , ,  
12/06/2017 20:10, 15, 83, 10 ,3, 6, SW, None, None, ,  
12/06/2017 20:07, 15, 83, 10 ,2, 6, SW, None, None, ,  
12/06/2017 20:00, 15, 83, 10 ,4, 6, SW, None, None, ,  
12/06/2017 19:52, 14, 83, 10 ,6, 7, SW, None, None, ,  
12/06/2017 19:50, 14, 82, 10 ,4, 8, SW, None, None, ,  
12/06/2017 19:39, 15, 82, 10 ,6, 11, SW, None, None, ,  
12/06/2017 19:37, 14, 82, 10 ,6, 11, SW, None, None, ,  
12/06/2017 19:29, 14, 80, 10 ,5, 13, SW, None, None, ,  
12/06/2017 19:22, 15, 79, 10 ,7, 12, W, None, None, ,  
12/06/2017 19:19, 15, 79, 10 ,6, 11, SW, None, None, ,  
12/06/2017 19:09, 15, 80, 10 ,7, 12, W, None, None, ,  
12/06/2017 19:07, 15, 80, 10 ,6, 12, W, None, None, ,  
12/06/2017 18:59, 14, 80, 9 ,6, 11, W, None, None, ,  
12/06/2017 18:52, 14, 80, 9 ,6, 12, W, None, None, ,  
12/06/2017 18:49, 14, 79, 9 ,6, 12, W, None, None, ,  
12/06/2017 18:39, 13, 82, 8 ,6, 11, W, None, None, ,  
12/06/2017 18:37, 12, 82, 8 ,6, 12, W, None, None, ,  
Change End Date:

Copyright © 1998-2015 Vaisala, Inc.
All Rights Reserved
Send comments about the data to:
SCAN Web ® is a registered trademark of Vaisala, Inc.
SCAN Web Version 6.0